| time (UTC) | temp F | wind direction | speed MPH | gust MPH | rain 1hr in | rain 24hr in | rain mn in | humidity % | barometer mb |
| 20260508151539 | 73 | 0 | 0.0 | 6.0 | 0.00 | 0.00 | 0.00 | 50 | 1011.4 |
| 20260508150039 | 75 | 136 | 1.0 | 4.0 | 0.00 | 0.00 | 0.00 | 48 | 1011.5 |
| 20260508144537 | 74 | 76 | 1.0 | 5.0 | 0.00 | 0.00 | 0.00 | 51 | 1011.5 |
| 20260508143056 | 74 | 47 | 3.0 | 8.0 | 0.00 | 0.00 | 0.00 | 49 | 1011.7 |
| 20260508141544 | 74 | 166 | 3.0 | 7.0 | 0.00 | 0.00 | 0.00 | 51 | 1011.8 |
| 20260508140041 | 74 | 132 | 1.0 | 7.0 | 0.00 | 0.00 | 0.00 | 50 | 1011.9 |
| 20260508134540 | 74 | 77 | 1.0 | 8.0 | 0.00 | 0.00 | 0.00 | 50 | 1011.9 |
| 20260508133038 | 73 | 150 | 1.0 | 7.0 | 0.00 | 0.00 | 0.00 | 50 | 1012.1 |
| 20260508131537 | 72 | 133 | 2.0 | 8.0 | 0.00 | 0.00 | 0.00 | 53 | 1012.2 |
| 20260508130035 | 72 | 148 | 1.0 | 5.0 | 0.00 | 0.00 | 0.00 | 51 | 1012.0 |
| 20260508124539 | 73 | 165 | 2.0 | 7.0 | 0.00 | 0.00 | 0.00 | 49 | 1012.2 |
| 20260508123042 | 72 | 87 | 1.0 | 7.0 | 0.00 | 0.00 | 0.00 | 57 | 1012.2 |
| 20260508121538 | 72 | 103 | 1.0 | 7.0 | 0.00 | 0.00 | 0.00 | 54 | 1012.4 |
| 20260508120036 | 72 | 49 | 2.0 | 10.0 | 0.00 | 0.00 | 0.00 | 55 | 1012.5 |
| 20260508114541 | 72 | 112 | 2.0 | 6.0 | 0.00 | 0.00 | 0.00 | 55 | 1012.3 |
| 20260508113040 | 71 | 87 | 1.0 | 8.0 | 0.00 | 0.00 | 0.00 | 58 | 1012.4 |
| 20260508111541 | 71 | 120 | 2.0 | 6.0 | 0.00 | 0.00 | 0.00 | 58 | 1012.5 |
| 20260508110038 | 70 | 72 | 1.0 | 7.0 | 0.00 | 0.00 | 0.00 | 60 | 1012.4 |
| 20260508104534 | 70 | 86 | 2.0 | 10.0 | 0.00 | 0.00 | 0.00 | 61 | 1012.5 |
| 20260508103044 | 69 | 85 | 3.0 | 8.0 | 0.00 | 0.00 | 0.00 | 62 | 1012.6 |
| 20260508101536 | 69 | 52 | 2.0 | 7.0 | 0.00 | 0.00 | 0.00 | 61 | 1012.7 |
| 20260508100056 | 68 | 49 | 3.0 | 8.0 | 0.00 | 0.00 | 0.00 | 65 | 1012.7 |
| 20260508094542 | 68 | 98 | 2.0 | 8.0 | 0.00 | 0.00 | 0.00 | 65 | 1012.6 |
| 20260508093039 | 67 | 93 | 2.0 | 6.0 | 0.00 | 0.00 | 0.00 | 68 | 1012.8 |
| 20260508091544 | 66 | 18 | 1.0 | 6.0 | 0.00 | 0.00 | 0.00 | 70 | 1012.9 |
| 20260508090041 | 65 | 109 | 2.0 | 5.0 | 0.00 | 0.00 | 0.00 | 71 | 1013.0 |
| 20260508084539 | 64 | 55 | 2.0 | 6.0 | 0.00 | 0.00 | 0.00 | 75 | 1013.0 |
| 20260508083039 | 62 | 57 | 2.0 | 6.0 | 0.00 | 0.00 | 0.00 | 77 | 1013.1 |
| 20260508081553 | 60 | 76 | 1.0 | 6.0 | 0.00 | 0.00 | 0.00 | 81 | 1012.9 |
| 20260508080040 | 59 | 69 | 2.0 | 7.0 | 0.00 | 0.00 | 0.00 | 81 | 1012.9 |
| 20260508074537 | 58 | 80 | 1.0 | 7.0 | 0.00 | 0.00 | 0.00 | 82 | 1013.1 |
| 20260508073043 | 56 | 57 | 2.0 | 6.0 | 0.00 | 0.00 | 0.00 | 82 | 1013.1 |
| 20260508071542 | 56 | 0 | 1.0 | 7.0 | 0.00 | 0.00 | 0.00 | 84 | 1013.0 |
| 20260508070041 | 55 | 55 | 1.0 | 6.0 | 0.00 | 0.00 | 0.00 | 84 | 1013.0 |
| 20260508064540 | 54 | 66 | 1.0 | 6.0 | 0.00 | 0.00 | 0.00 | 84 | 1013.0 |
| 20260508063037 | 53 | 49 | 1.0 | 3.0 | 0.00 | 0.00 | 0.00 | 87 | 1012.8 |
| 20260508061536 | 52 | 81 | 2.0 | 5.0 | 0.00 | 0.00 | 0.00 | 89 | 1012.8 |
| 20260508060053 | 50 | 68 | 1.0 | 3.0 | 0.00 | 0.00 | 0.00 | 90 | 1012.9 |
| 20260508054611 | 49 | 79 | 1.0 | 3.0 | 0.00 | 0.00 | 0.00 | 90 | 1012.5 |
| 20260508053048 | 49 | 63 | 1.0 | 3.0 | 0.00 | 0.00 | 0.00 | 91 | 1012.5 |
| 20260508051541 | 49 | 0 | 0.0 | 2.0 | 0.00 | 0.00 | 0.00 | 90 | 1012.5 |
| 20260508050043 | 48 | 67 | 1.0 | 4.0 | 0.00 | 0.00 | 0.00 | 90 | 1012.4 |
| 20260508044540 | 49 | 62 | 1.0 | 3.0 | 0.00 | 0.00 | 0.00 | 90 | 1012.4 |
| 20260508043039 | 49 | 0 | 0.0 | 2.0 | 0.00 | 0.00 | 0.00 | 90 | 1012.4 |
| 20260508041537 | 49 | 0 | 0.0 | 4.0 | 0.00 | 0.00 | 0.00 | 90 | 1012.4 |
| 20260508040037 | 49 | 78 | 0.0 | 3.0 | 0.00 | 0.00 | 0.00 | 90 | 1012.5 |
| 20260508034543 | 49 | 0 | 0.0 | 5.0 | 0.00 | 0.00 | 0.00 | 90 | 1012.5 |
| 20260508033040 | 49 | 0 | 0.0 | 3.0 | 0.00 | 0.00 | 0.00 | 90 | 1012.5 |
| 20260508031539 | 49 | 63 | 0.0 | 3.0 | 0.00 | 0.00 | 0.00 | 89 | 1012.6 |
| 20260508030040 | 50 | 0 | 0.0 | 2.0 | 0.00 | 0.00 | 0.00 | 89 | 1012.6 |
| 20260508024542 | 50 | 0 | 0.0 | 3.0 | 0.00 | 0.00 | 0.00 | 88 | 1012.7 |
| 20260508023041 | 50 | 0 | 0.0 | 3.0 | 0.00 | 0.00 | 0.00 | 88 | 1012.7 |
| 20260508021540 | 50 | 63 | 0.0 | 2.0 | 0.00 | 0.00 | 0.00 | 88 | 1012.6 |
| 20260508020038 | 51 | 0 | 0.0 | 0.0 | 0.00 | 0.00 | 0.00 | 87 | 1012.7 |
| 20260508014540 | 51 | 0 | 0.0 | 0.0 | 0.00 | 0.00 | 0.00 | 87 | 1013.0 |
| 20260508013042 | 51 | 0 | 0.0 | 0.0 | 0.00 | 0.00 | 0.00 | 86 | 1013.0 |
| 20260508011542 | 52 | 0 | 0.0 | 0.0 | 0.00 | 0.00 | 0.00 | 86 | 1013.0 |
| 20260508010048 | 52 | 0 | 0.0 | 0.0 | 0.00 | 0.00 | 0.00 | 85 | 1012.9 |
| 20260508004538 | 52 | 0 | 0.0 | 0.0 | 0.00 | 0.00 | 0.00 | 85 | 1012.9 |
| 20260508003036 | 52 | 0 | 0.0 | 0.0 | 0.00 | 0.00 | 0.00 | 84 | 1013.0 |
| 20260508001536 | 53 | 0 | 0.0 | 0.0 | 0.00 | 0.00 | 0.00 | 83 | 1012.9 |
| 20260508000041 | 53 | 0 | 0.0 | 0.0 | 0.00 | 0.00 | 0.00 | 83 | 1013.1 |
| 20260507234542 | 53 | 0 | 0.0 | 0.0 | 0.00 | 0.00 | 0.00 | 83 | 1013.0 |
| 20260507233037 | 53 | 0 | 0.0 | 0.0 | 0.00 | 0.00 | 0.00 | 83 | 1013.1 |
| 20260507231543 | 54 | 0 | 0.0 | 0.0 | 0.00 | 0.00 | 0.00 | 83 | 1013.1 |
| 20260507230042 | 54 | 0 | 0.0 | 0.0 | 0.00 | 0.00 | 0.00 | 83 | 1013.2 |
| 20260507224540 | 54 | 0 | 0.0 | 0.0 | 0.00 | 0.00 | 0.00 | 83 | 1013.2 |
| 20260507223038 | 54 | 0 | 0.0 | 0.0 | 0.00 | 0.00 | 0.00 | 82 | 1013.3 |
| 20260507221537 | 55 | 0 | 0.0 | 0.0 | 0.00 | 0.00 | 0.00 | 82 | 1013.4 |
| 20260507220117 | 55 | 0 | 0.0 | 0.0 | 0.00 | 0.00 | 0.00 | 81 | 1013.5 |
| 20260507214545 | 55 | 0 | 0.0 | 0.0 | 0.00 | 0.00 | 0.00 | 80 | 1013.5 |
| 20260507213039 | 56 | 0 | 0.0 | 0.0 | 0.00 | 0.00 | 0.00 | 80 | 1013.5 |
| 20260507211542 | 57 | 0 | 0.0 | 0.0 | 0.00 | 0.00 | 0.00 | 79 | 1013.4 |
| 20260507210039 | 57 | 0 | 0.0 | 0.0 | 0.00 | 0.00 | 0.00 | 78 | 1013.4 |
| 20260507204538 | 58 | 0 | 0.0 | 0.0 | 0.00 | 0.00 | 0.00 | 78 | 1013.0 |
| 20260507203037 | 58 | 0 | 0.0 | 0.0 | 0.00 | 0.00 | 0.00 | 76 | 1013.0 |
| 20260507201543 | 59 | 0 | 0.0 | 3.0 | 0.00 | 0.00 | 0.00 | 76 | 1012.9 |
| 20260507200040 | 60 | 42 | 0.0 | 3.0 | 0.00 | 0.00 | 0.00 | 75 | 1013.0 |
| 20260507194537 | 60 | 0 | 0.0 | 1.0 | 0.00 | 0.00 | 0.00 | 74 | 1012.9 |
| 20260507193043 | 61 | 0 | 0.0 | 0.0 | 0.00 | 0.00 | 0.00 | 74 | 1012.8 |
| 20260507191536 | 61 | 0 | 0.0 | 0.0 | 0.00 | 0.00 | 0.00 | 73 | 1012.7 |
| 20260507190040 | 62 | 0 | 0.0 | 2.0 | 0.00 | 0.00 | 0.00 | 71 | 1012.4 |
| 20260507184538 | 63 | 71 | 0.0 | 3.0 | 0.00 | 0.00 | 0.00 | 69 | 1012.4 |
| 20260507183046 | 64 | 0 | 1.0 | 4.0 | 0.00 | 0.00 | 0.00 | 68 | 1012.3 |
| 20260507181542 | 64 | 0 | 0.0 | 4.0 | 0.00 | 0.00 | 0.00 | 67 | 1012.2 |
| 20260507180040 | 64 | 70 | 0.0 | 3.0 | 0.00 | 0.00 | 0.00 | 66 | 1012.4 |
| 20260507174535 | 64 | 0 | 0.0 | 4.0 | 0.00 | 0.00 | 0.00 | 65 | 1012.4 |
| 20260507173045 | 65 | 74 | 1.0 | 5.0 | 0.00 | 0.00 | 0.00 | 63 | 1012.3 |
| 20260507171548 | 65 | 63 | 1.0 | 3.0 | 0.00 | 0.00 | 0.00 | 62 | 1012.3 |
| 20260507170037 | 66 | 121 | 2.0 | 6.0 | 0.00 | 0.00 | 0.00 | 61 | 1012.2 |
| 20260507164544 | 67 | 0 | 1.0 | 6.0 | 0.00 | 0.00 | 0.00 | 61 | 1012.3 |
| 20260507163043 | 66 | 94 | 1.0 | 5.0 | 0.00 | 0.00 | 0.00 | 61 | 1012.3 |
| 20260507161543 | 65 | 112 | 2.0 | 4.0 | 0.00 | 0.00 | 0.00 | 61 | 1012.5 |
| 20260507160047 | 65 | 0 | 0.0 | 3.0 | 0.00 | 0.00 | 0.00 | 64 | 1012.5 |
| 20260507154538 | 65 | 71 | 1.0 | 4.0 | 0.00 | 0.00 | 0.00 | 61 | 1012.4 |
| 20260507153043 | 65 | 123 | 1.0 | 4.0 | 0.00 | 0.00 | 0.00 | 63 | 1012.6 |